Regional Weather Roundup
Issued by NWS

Home | Current Version | Previous Version | Text Only | Print | Product List | Glossary Off
Versions: 1 2 3 4 5 6 7 8 9 10 11 12 13 14 15 16 17 18 19 20 21 22 23 24 25 26 27 28 29 30 31 32 33 34 35 36 37 38 39 40 41 42 43 44 45 46 47 48 49 50

346
ASUS45 KBOI 212110
RWRID

IDAHO REGIONAL WEATHER ROUNDUP
NATIONAL WEATHER SERVICE BOISE ID
200 PM MST TUE FEB 21 2017

NOTE: "FAIR" INDICATES FEW OR NO CLOUDS BELOW 12000 FEET
WITH NO SIGNIFICANT WEATHER AND/OR OBSTRUCTIONS TO VISIBILITY

IDZ012-014-212200-
SOUTHWEST IDAHO


CITY           SKY/WX    TMP DP  RH WIND       PRES   REMARKS
BOISE          MOSUNNY   55  27  34 SW17G29   29.90F
CALDWELL       MOSUNNY   57  27  31 SW29G37   29.88S
MOUNTAIN HOME  PTSUNNY   52  33  49 W17       29.92S
$$

IDZ016-017-212200-
SOUTHCENTRAL IDAHO


CITY           SKY/WX    TMP DP  RH WIND       PRES   REMARKS
BURLEY         LGT RAIN  44  35  70 W23G36    29.95S
JEROME           N/A    N/A N/A N/A MISG      29.93F
TWIN FALLS     PTSUNNY   43  31  62 SW28G35   29.97R
$$

IDZ019>023-212200-
SOUTHEAST IDAHO


CITY           SKY/WX    TMP DP  RH WIND       PRES   REMARKS
IDAHO FALLS    PTSUNNY   39  33  79 SW14      29.91F WCI  31
POCATELLO      LGT RAIN  41  36  82 W21G26    29.94F
REXBURG        CLOUDY    43  30  60 SW29G38   29.88F
$$

IDZ006-010-011-018-031-032-212200-
CENTRAL IDAHO MOUNTAINS


CITY           SKY/WX    TMP DP  RH WIND       PRES   REMARKS
MCCALL         CLOUDY    38  25  59 S20G33    29.81F WCI  28
HAILEY         CLOUDY    39  28  65 S10       29.93F WCI  32
STANLEY          N/A     30  27  88 E6        29.84F WCI  24
SALMON         CLOUDY    45  32  61 S20       29.77S
CHALLIS        LGT RAIN  37  32  82 VRB5      29.82R WCI  33
$$

IDZ002-004-006-007-026-212200-
NORTHERN IDAHO


CITY           SKY/WX    TMP DP  RH WIND       PRES   REMARKS
LEWISTON       LGT RAIN  43  38  82 W12       29.75R
LOWELL           N/A     40  37  89 NW3       29.73F
COEUR D`ALENE  LGT RAIN  36  34  92 CALM      29.73R FOG
MULLAN PASS    SNOW      29  29 100 VRB7      29.60R VSB 1/4 WCI  22
$$




USA.gov is the U.S. government's official web portal to all federal, state and local government web resources and services.